GW6445 Weather Reports


time (UTC)temp
C
wind
direction
speed
KPH
gust
KPH
rain 1hr
cm
rain 24hr
cm
rain mn
cm
humidity
%
barometer
mb
20260505153157 12 245 1.6 3.2 0.00 0.00 0.00 88 1015.6
20260505152653 11 295 0.0 3.2 0.00 0.00 0.00 89 1015.6
20260505152139 11 234 4.8 4.8 0.00 0.00 0.00 89 1015.7
20260505151634 11 249 3.2 4.8 0.00 0.00 0.00 90 1015.7
20260505151125 11 209 3.2 4.8 0.00 0.00 0.00 90 1015.5
20260505150614 11 127 0.0 3.2 0.00 0.00 0.00 90 1015.5
20260505150109 11 25 0.0 1.6 0.00 0.00 0.00 91 1015.6
20260505140424 11 287 0.0 6.4 0.00 0.00 0.00 90 1014.8
20260505130254 11 225 4.8 4.8 0.00 0.00 0.00 88 1014.6
20260505124735 11 223 3.2 4.8 0.00 0.00 0.00 87 1014.5
20260505124221 11 222 1.6 3.2 0.00 0.00 0.00 87 1014.5
20260505123715 11 207 1.6 3.2 0.00 0.00 0.00 88 1014.5
20260505123205 11 239 1.6 3.2 0.00 0.00 0.00 87 1014.5
20260505122657 11 203 3.2 3.2 0.00 0.00 0.00 87 1014.5
20260505122152 11 218 3.2 4.8 0.00 0.00 0.00 87 1014.5
20260505121638 11 214 1.6 3.2 0.00 0.00 0.00 87 1014.4
20260505121133 11 220 3.2 3.2 0.00 0.00 0.00 87 1014.5
20260505120619 11 180 0.0 3.2 0.00 0.00 0.00 87 1014.6
20260505120114 11 256 0.0 3.2 0.00 0.00 0.00 87 1014.5
20260505115606 12 151 0.0 3.2 0.00 0.00 0.00 86 1014.5
20260505115101 12 111 0.0 3.2 0.00 0.00 0.00 86 1014.4
20260505114552 12 232 0.0 1.6 0.00 0.00 0.00 86 1014.3
20260505114047 12 250 1.6 3.2 0.00 0.00 0.00 86 1014.4
20260505113801 12 319 0.0 3.2 0.00 0.00 0.00 86 1014.4
20260505113035 12 243 0.0 3.2 0.00 0.00 0.00 86 1014.3
20260505112527 12 237 3.2 3.2 0.00 0.00 0.00 86 1014.4
20260505112022 12 216 1.6 3.2 0.00 0.00 0.00 87 1014.4
20260505111508 12 274 0.0 3.2 0.00 0.00 0.00 87 1014.4
20260505111003 12 136 0.0 3.2 0.00 0.00 0.00 87 1014.5
20260505110448 12 215 1.6 3.2 0.00 0.00 0.00 87 1014.3
20260505101840 12 290 4.8 4.8 0.00 0.00 0.00 87 1013.8
20260505101325 12 178 1.6 3.2 0.00 0.00 0.00 85 1014.0
20260505100821 12 306 3.2 3.2 0.00 0.00 0.00 85 1013.9
20260505100527 12 321 1.6 3.2 0.00 0.00 0.00 85 1014.1
20260505095801 12 70 0.0 3.2 0.00 0.00 0.00 85 1013.8
20260505095515 12 233 3.2 3.2 0.00 0.00 0.00 85 1013.9
20260505094748 12 230 3.2 4.8 0.00 0.00 0.00 85 1014.1
20260505094235 12 213 3.2 6.4 0.00 0.00 0.00 85 1013.8
20260505093730 12 218 3.2 4.8 0.00 0.00 0.00 85 1013.9
20260505093221 12 185 3.2 4.8 0.00 0.00 0.00 85 1013.7
20260505092711 12 245 3.2 4.8 0.00 0.00 0.00 84 1013.6
20260505092205 12 240 3.2 4.8 0.00 0.00 0.00 84 1013.6
20260505091652 12 239 3.2 4.8 0.00 0.00 0.00 84 1013.6
20260505091146 12 209 3.2 4.8 0.00 0.00 0.00 84 1013.6
20260505090632 12 200 1.6 3.2 0.00 0.00 0.00 84 1013.5
20260505090127 12 211 0.0 6.4 0.00 0.00 0.00 83 1013.4
20260505085613 12 180 0.0 3.2 0.00 0.00 0.00 83 1013.5
20260505085109 13 232 0.0 3.2 0.00 0.00 0.00 83 1013.3
20260505084554 13 273 1.6 3.2 0.00 0.00 0.00 85 1013.2
20260505084049 13 130 0.0 1.6 0.00 0.00 0.00 86 1013.4
20260505083542 13 33 0.0 3.2 0.00 0.00 0.00 86 1013.3
20260505083030 13 26 3.2 3.2 0.00 0.00 0.00 86 1013.3
20260505082526 13 96 0.0 1.6 0.00 0.00 0.00 85 1013.3
20260505082011 13 113 0.0 3.2 0.00 0.00 0.00 84 1013.4
20260505081506 13 222 0.0 3.2 0.00 0.00 0.00 83 1013.3
20260505080952 13 216 3.2 4.8 0.00 0.00 0.00 83 1013.3
20260505080447 13 232 0.0 3.2 0.00 0.00 0.00 83 1013.3
20260505075938 13 236 0.0 3.2 0.00 0.00 0.00 83 1013.3
20260505075650 13 240 3.2 6.4 0.00 0.00 0.00 83 1013.1
20260505075144 13 256 0.0 3.2 0.00 0.00 0.00 83 1013.0
20260505074410 13 257 0.0 1.6 0.00 0.00 0.00 83 1013.0
20260505074126 13 355 3.2 3.2 0.00 0.00 0.00 84 1013.1
20260505073356 13 220 0.0 3.2 0.00 0.00 0.00 84 1012.8
20260505072851 13 113 0.0 3.2 0.00 0.00 0.00 83 1012.8
20260505072341 13 34 0.0 3.2 0.00 0.00 0.00 83 1012.8
20260505071831 13 205 0.0 3.2 0.00 0.00 0.00 83 1012.7
20260505071326 13 295 1.6 3.2 0.00 0.00 0.00 83 1012.6
20260505070817 13 238 1.6 3.2 0.00 0.00 0.00 82 1012.4
20260505070310 13 269 0.0 3.2 0.00 0.00 0.00 82 1012.6
20260505065758 13 224 0.0 4.8 0.00 0.00 0.00 82 1012.7
20260505065253 13 301 1.6 3.2 0.00 0.00 0.00 81 1012.4
20260505064745 13 201 3.2 6.4 0.00 0.00 0.00 81 1012.5
20260505064238 14 245 1.6 6.4 0.00 0.00 0.00 81 1012.5
20260505063726 14 236 3.2 3.2 0.00 0.00 0.00 81 1012.2
20260505063222 14 147 0.0 4.8 0.00 0.00 0.00 80 1012.1
20260505062707 14 349 1.6 3.2 0.00 0.00 0.00 80 1012.0
20260505062201 15 252 0.0 3.2 0.00 0.00 0.00 80 1011.9
20260505061908 15 249 0.0 3.2 0.00 0.00 0.00 79 1012.0
20260505061143 15 211 3.2 3.2 0.00 0.00 0.00 78 1011.8
20260505060629 15 323 0.0 4.8 0.00 0.00 0.00 78 1011.8
20260505060123 15 315 0.0 4.8 0.00 0.00 0.00 78 1011.8
20260505055615 16 4 0.0 3.2 0.00 0.00 0.00 77 1011.7
20260505055110 16 243 0.0 4.8 0.00 0.00 0.00 77 1011.5
20260505054602 16 146 0.0 3.2 0.00 0.00 0.00 77 1011.6
20260505054053 16 214 0.0 3.2 0.00 0.00 0.00 76 1011.6
20260505053542 16 233 8.0 8.0 0.00 0.00 0.00 77 1011.5
20260505053037 16 269 0.0 3.2 0.00 0.00 0.00 79 1011.6
20260505052523 16 229 0.0 0.0 0.00 0.00 0.00 79 1011.2
20260505052018 16 326 0.0 0.0 0.00 0.00 0.00 78 1011.4
20260505051510 16 130 0.0 1.6 0.00 0.00 0.00 78 1011.5
20260505051005 16 345 0.0 1.6 0.00 0.00 0.00 77 1011.3
20260505050451 16 23 0.0 1.6 0.00 0.00 0.00 77 1011.3
20260505041325 18 36 0.0 3.2 0.00 0.00 0.00 71 1010.6
20260505040811 18 28 0.0 1.6 0.00 0.00 0.00 70 1010.5
20260505040306 18 84 0.0 3.2 0.00 0.00 0.00 69 1010.7
20260505035752 18 30 1.6 1.6 0.00 0.00 0.00 69 1010.5
20260505035507 19 81 0.0 0.0 0.00 0.00 0.00 68 1010.2
20260505034734 19 96 0.0 4.8 0.00 0.00 0.00 68 1010.2
20260505034228 19 180 1.6 6.4 0.00 0.00 0.00 67 1010.1
20260505033720 19 245 1.6 3.2 0.00 0.00 0.00 69 1009.9
20260505033215 20 223 4.8 4.8 0.00 0.00 0.00 69 1009.8
20260505032707 20 206 1.6 3.2 0.00 0.00 0.00 69 1009.9
20260505032203 20 154 0.0 4.8 0.00 0.00 0.00 69 1009.7
20260505031655 20 269 1.6 8.0 0.00 0.00 0.00 68 1009.7
20260505031149 20 217 3.2 4.8 0.00 0.00 0.00 68 1009.7
20260505030636 21 160 0.0 6.4 0.00 0.00 0.00 67 1009.4
20260505030619 21 277 1.6 4.8 0.00 0.00 0.00 67 1009.5
20260505025836 21 188 3.2 6.4 0.00 0.00 0.00 67 1009.4
20260505025111 21 217 0.0 4.8 0.00 0.00 0.00 66 1009.0
20260505024607 21 113 0.0 4.8 0.00 0.00 0.00 65 1009.3
20260505024059 21 196 0.0 6.4 0.00 0.00 0.00 64 1009.1
20260505023553 22 231 3.2 3.2 0.00 0.00 0.00 64 1009.1
20260505023046 22 211 3.2 8.0 0.00 0.00 0.00 63 1009.0
20260505022542 22 200 1.6 6.4 0.00 0.00 0.00 62 1009.2
20260505022029 22 192 1.6 6.4 0.00 0.00 0.00 62 1009.1
20260505021525 22 177 0.0 6.4 0.00 0.00 0.00 61 1009.0
20260505021231 23 173 3.2 4.8 0.00 0.00 0.00 61 1009.2
20260505020505 23 147 4.8 6.4 0.00 0.00 0.00 61 1009.0
20260505015959 23 223 1.6 6.4 0.00 0.00 0.00 60 1009.0
20260505015706 23 275 1.6 4.8 0.00 0.00 0.00 60 1009.1
20260505014941 23 194 3.2 6.4 0.00 0.00 0.00 60 1009.1
20260505014427 23 180 4.8 6.4 0.00 0.00 0.00 60 1009.1
20260505013921 23 211 0.0 4.8 0.00 0.00 0.00 59 1009.0
20260505013413 23 156 1.6 8.0 0.00 0.00 0.00 60 1009.0
20260505012905 23 254 6.4 9.7 0.00 0.00 0.00 60 1009.1
20260505012400 23 195 3.2 8.0 0.00 0.00 0.00 60 1009.3
20260505011851 23 147 0.0 6.4 0.00 0.00 0.00 60 1009.1
20260505011347 23 151 3.2 6.4 0.00 0.00 0.00 60 1009.2
20260505010838 23 189 3.2 9.7 0.00 0.00 0.00 58 1009.2
20260505010333 24 257 3.2 3.2 0.00 0.00 0.00 59 1009.1
20260505005819 24 233 3.2 6.4 0.00 0.00 0.00 59 1009.4
20260505005314 24 242 0.0 6.4 0.00 0.00 0.00 58 1009.3
20260505004800 23 251 1.6 4.8 0.00 0.00 0.00 58 1009.4
20260505004255 23 225 3.2 4.8 0.00 0.00 0.00 59 1009.4
20260505003741 23 203 3.2 9.7 0.00 0.00 0.00 59 1009.5
20260505003236 23 198 3.2 6.4 0.00 0.00 0.00 58 1009.3
20260505002728 23 151 3.2 9.7 0.00 0.00 0.00 58 1009.3
20260505002223 23 207 6.4 6.4 0.00 0.00 0.00 58 1009.4
20260505001709 24 241 3.2 8.0 0.00 0.00 0.00 57 1009.4
20260505001204 23 84 0.0 4.8 0.00 0.00 0.00 58 1009.5
20260505000650 23 202 6.4 11.3 0.00 0.00 0.00 58 1009.5
20260505000144 24 211 3.2 3.2 0.00 0.00 0.00 57 1009.5
20260504235636 23 291 4.8 8.0 0.00 0.00 0.00 57 1009.6
20260504235132 24 256 4.8 9.7 0.00 0.00 0.00 56 1009.5
20260504234623 24 200 3.2 8.0 0.00 0.00 0.00 56 1009.5
20260504234118 24 212 6.4 9.7 0.00 0.00 0.00 56 1009.4
20260504234052 23 187 0.0 9.7 0.00 0.00 0.00 58 1009.6
20260504233101 23 197 6.4 9.7 0.00 0.00 0.00 58 1009.8
20260504232810 23 202 8.0 11.3 0.00 0.00 0.00 58 1009.8
20260504232305 23 278 6.4 9.7 0.00 0.00 0.00 57 1009.7
20260504231537 23 178 6.4 9.7 0.00 0.00 0.00 56 1009.6
20260504231029 23 263 6.4 12.9 0.00 0.00 0.00 56 1009.9
20260504230525 23 83 0.0 6.4 0.00 0.00 0.00 57 1009.7
20260504230011 22 136 0.0 6.4 0.00 0.00 0.00 58 1010.0
20260504225505 22 237 3.2 9.7 0.00 0.00 0.00 58 1010.0
20260504224956 22 220 3.2 9.7 0.00 0.00 0.00 56 1010.0
20260504224452 22 285 8.0 11.3 0.00 0.00 0.00 57 1010.1
20260504223943 22 193 1.6 9.7 0.00 0.00 0.00 58 1010.2
20260504223438 23 240 6.4 9.7 0.00 0.00 0.00 57 1010.1
20260504222930 23 113 0.0 6.4 0.00 0.00 0.00 57 1010.3
20260504222425 22 201 4.8 9.7 0.00 0.00 0.00 58 1010.4
20260504222404 22 11 1.6 8.0 0.00 0.00 0.00 59 1010.4
20260504221412 21 358 3.2 8.0 0.00 0.00 0.00 60 1010.6
20260504220905 21 37 3.2 6.4 0.00 0.00 0.00 60 1010.8
20260504220357 21 214 3.2 9.7 0.00 0.00 0.00 61 1010.7
20260504215846 21 275 1.6 4.8 0.00 0.00 0.00 60 1010.9
20260504215341 21 159 3.2 14.5 0.00 0.00 0.00 59 1010.7
20260504214832 21 328 4.8 8.0 0.00 0.00 0.00 60 1010.8
20260504214325 21 183 4.8 12.9 0.00 0.00 0.00 60 1010.9
20260504213819 20 56 1.6 9.7 0.00 0.00 0.00 61 1010.9
20260504213312 20 232 3.2 8.0 0.00 0.00 0.00 62 1011.1
20260504212806 20 226 4.8 6.4 0.00 0.00 0.00 63 1011.4
20260504212300 20 141 3.2 9.7 0.00 0.00 0.00 64 1011.2
20260504211245 19 318 3.2 9.7 0.00 0.00 0.00 64 1011.5
20260504210731 20 257 6.4 8.0 0.00 0.00 0.00 63 1011.3
20260504210714 19 180 3.2 4.8 0.00 0.00 0.00 65 1011.7
20260504205718 20 34 1.6 8.0 0.00 0.00 0.00 65 1011.6
20260504205214 19 176 3.2 9.7 0.00 0.00 0.00 66 1011.7
20260504204704 18 322 4.8 6.4 0.00 0.00 0.00 66 1011.9
20260504204157 18 328 0.0 9.7 0.00 0.00 0.00 68 1012.1
20260504203912 18 221 9.7 9.7 0.00 0.00 0.00 67 1012.0
20260504203143 18 297 3.2 8.0 0.00 0.00 0.00 68 1012.2
20260504202637 18 201 4.8 12.9 0.00 0.00 0.00 68 1012.1
20260504202123 18 151 1.6 6.4 0.00 0.00 0.00 69 1012.3
20260504201838 18 232 3.2 6.4 0.00 0.00 0.00 67 1012.2
20260504200605 17 206 8.0 8.0 0.00 0.00 0.00 70 1012.5
20260504200052 17 189 1.6 8.0 0.00 0.00 0.00 70 1012.5
20260504195807 17 225 6.4 8.0 0.00 0.00 0.00 72 1012.6
20260504195036 17 282 1.6 11.3 0.00 0.00 0.00 72 1012.7
20260504194533 17 234 6.4 9.7 0.00 0.00 0.00 71 1012.5
20260504194018 16 272 1.6 6.4 0.00 0.00 0.00 72 1012.6
20260504193514 16 294 3.2 11.3 0.00 0.00 0.00 72 1012.6
20260504193004 16 257 4.8 11.3 0.00 0.00 0.00 72 1012.6
20260504192449 16 189 1.6 4.8 0.00 0.00 0.00 75 1012.6
20260504191944 16 209 3.2 8.0 0.00 0.00 0.00 73 1012.9
20260504191435 16 301 1.6 11.3 0.00 0.00 0.00 74 1013.0
20260504190930 15 244 3.2 14.5 0.00 0.00 0.00 76 1013.0
20260504190422 15 238 6.4 11.3 0.00 0.00 0.00 76 1012.8
20260504185917 15 83 3.2 8.0 0.00 0.00 0.00 77 1013.1
20260504185409 15 217 4.8 8.0 0.00 0.00 0.00 78 1012.9
20260504184900 14 230 6.4 14.5 0.00 0.00 0.00 79 1013.2
20260504184356 14 303 1.6 9.7 0.00 0.00 0.00 79 1013.3
20260504183848 14 229 1.6 16.1 0.00 0.00 0.00 79 1013.3
20260504183343 15 234 3.2 6.4 0.00 0.00 0.00 78 1013.3
20260504182828 15 201 1.6 4.8 0.00 0.00 0.00 79 1013.1
20260504182323 14 186 0.0 6.4 0.00 0.00 0.00 79 1013.0
20260504181814 14 140 3.2 9.7 0.00 0.00 0.00 80 1013.0
20260504181309 14 180 4.8 9.7 0.00 0.00 0.00 80 1013.0
20260504180801 14 217 6.4 9.7 0.00 0.00 0.00 79 1013.1
20260504180253 14 251 1.6 9.7 0.00 0.00 0.00 79 1013.1
20260504175237 13 229 0.0 9.7 0.00 0.00 0.00 81 1013.0
20260504174723 13 162 3.2 6.4 0.00 0.00 0.00 81 1013.3
20260504174218 13 223 3.2 9.7 0.00 0.00 0.00 81 1013.0
20260504173709 13 83 3.2 8.0 0.00 0.00 0.00 82 1013.1
20260504173204 13 284 3.2 9.7 0.00 0.00 0.00 82 1013.3
20260504172650 13 231 11.3 12.9 0.00 0.00 0.00 82 1013.1
20260504172145 13 185 4.8 9.7 0.00 0.00 0.00 82 1013.1
20260504171631 13 252 4.8 8.0 0.00 0.00 0.00 82 1013.1
20260504171126 13 225 4.8 6.4 0.00 0.00 0.00 82 1013.0
20260504170612 13 195 4.8 9.7 0.00 0.00 0.00 82 1013.1
20260504170108 13 238 6.4 11.3 0.00 0.00 0.00 83 1013.1
20260504160420 12 200 9.7 9.7 0.00 0.00 0.00 84 1013.2